Вернуться в каталог

STARLINK-2097

АктивенСвязьVLEO
NORAD 47377·PAYLOAD·🇺🇸 United States

Запущен Jan 20, 2021 с Cape Canaveral Space Force Station

Loading…

Ближайшие Пролёты (ближайшие 24 часа)

TLE

СвежийSource: CelesTrak SupGP

Эпоха: Sep 14, 2026, 21:49 UTC

1 47377C 21005AE  26257.90951389  .00054569  00000+0  17551-2 0  2578
2 47377  53.1579 265.6963 0001150 102.6606 264.9523 15.31668392    11

Отслеживайте STARLINK-2097 в реальном времени с AllMySat

Download on the App Store